Location: Newark
(47.5833°N, 8.1500°E)
Time: 17:02:08
(UTC+00:00)

Tiros 1 despin weight - Pass Details

Date: 03 November 2020
Orbit: 593 x 642 km, 48.2° (Epoch: 27 November)

Event Time Altitude Azimuth Distance (km) Brightness Sun altitude
Rises 03:28:30 0° 284° (WNW) 2,846 - -28.3°
Reaches altitude 10° 03:31:04 10° 272° (W) 1,934 - -27.9°
Maximum altitude 03:34:46 26° 216° (SW) 1,167 - -27.3°
Exits shadow 03:37:48 13° 164° (SSE) 1,711 ? -26.8°
Drops below altitude 10° 03:38:27 10° 158° (SSE) 1,917 ? -26.7°
Sets 03:40:59 0° 146° (SE) 2,814 ? -26.3°
